This is the latest recevied weather packets stored in our database for station/object K7YVO. If no packets are shown the sender has not sent any weather packets the latest 10 day(s).
| Time | Temp. | Humidity | Pressure | Rain* | Wind** | Luminosity | Snow |
|---|---|---|---|---|---|---|---|
| 1777511923 | 21.67° C | 45% | 1022 hPa | 0 mm | - | 131 W/m² | - |
| 1777511620 | 22.22° C | 45% | 1022 hPa | 0 mm | - | 143 W/m² | - |
| 1777511318 | 22.22° C | 45% | 1022.2 hPa | 0 mm | - | 110 W/m² | - |
| 1777511013 | 21.67° C | 45% | 1022.1 hPa | 0 mm | - | 165 W/m² | - |
| 1777510711 | 22.22° C | 45% | 1022 hPa | 0 mm | - | 181 W/m² | - |
| 1777510406 | 22.78° C | 44% | 1022.2 hPa | 0 mm | - | 212 W/m² | - |
| 1777510103 | 22.78° C | 44% | 1022.2 hPa | 0 mm | - | 255 W/m² | - |
| 1777509800 | 21.67° C | 46% | 1022.2 hPa | 0 mm | - | 271 W/m² | - |
| 1777509495 | 21.67° C | 46% | 1022.2 hPa | 0 mm | - | 288 W/m² | - |
| 1777509193 | 22.78° C | 44% | 1022.1 hPa | 0 mm | - | 295 W/m² | - |
| 1777508890 | 21.11° C | 46% | 1022.2 hPa | 0 mm | - | 315 W/m² | - |
| 1777508586 | 21.67° C | 46% | 1022.2 hPa | 0 mm | - | 328 W/m² | - |
| 1777508284 | 21.67° C | 45% | 1022.1 hPa | 0 mm | - | 342 W/m² | - |
| 1777507981 | 21.67° C | 47% | 1022.3 hPa | 0 mm | - | 356 W/m² | - |
| 1777507677 | 21.67° C | 45% | 1022.1 hPa | 0 mm | - | 368 W/m² | - |
| 1777507374 | 21.67° C | 46% | 1022.2 hPa | 0 mm | - | 384 W/m² | - |
| 1777507072 | 21.11° C | 46% | 1022.3 hPa | 0 mm | - | 399 W/m² | - |
| 1777506769 | 21.67° C | 45% | 1022.2 hPa | 0 mm | - | 411 W/m² | - |
| 1777506465 | 21.11° C | 46% | 1022.3 hPa | 0 mm | - | 425 W/m² | - |
| 1777506161 | 21.11° C | 47% | 1022.2 hPa | 0 mm | - | 440 W/m² | - |
| 1777505857 | 20.56° C | 49% | 1022.4 hPa | 0 mm | - | 451 W/m² | - |
| 1777505554 | 20.56° C | 48% | 1022.5 hPa | 0 mm | - | 462 W/m² | - |
| 1777505250 | 21.11° C | 47% | 1022.6 hPa | 0 mm | - | 475 W/m² | - |
| 1777504947 | 20.56° C | 49% | 1022.6 hPa | 0 mm | - | 488 W/m² | - |
| 1777504644 | 20° C | 48% | 1022.5 hPa | 0 mm | - | 500 W/m² | - |
* Rain latest hour (hover to see other rain measurements)
** Current wind speed in m/s (hover to see current wind gust speed)